CW9774 Weather Reports


Display with metric or nautical units.
time (UTC)temp
F
wind
direction
speed
MPH
gust
MPH
rain 1hr
in
rain 24hr
in
rain mn
in
humidity
%
barometer
mb
20260504141032 61 307 14.0 20.0 0.00 0.00 0.00 60 1003.7
20260504140531 61 294 13.0 20.0 0.00 0.00 0.00 61 1003.8
20260504130531 53 250 7.0 12.0 0.00 0.00 0.00 76 1002.7
20260504110531 44 284 3.0 5.0 0.00 0.00 0.00 81 1003.3
20260504100530 45 0 0.0 3.0 0.00 0.00 0.00 77 1003.5
20260504081541 47 0 0.0 0.0 0.00 0.00 0.00 74 1004.4
20260504081030 47 0 0.0 0.0 0.00 0.00 0.00 74 1004.3
20260504080530 47 0 0.0 0.0 0.00 0.00 0.00 74 1004.3
20260504050530 51 0 0.0 0.0 0.00 0.00 0.00 66 1006.4
20260504045530 51 0 0.0 0.0 0.00 0.00 0.00 67 1006.6
20260504045030 51 0 0.0 0.0 0.00 0.00 0.00 68 1006.8
20260504044543 51 0 0.0 0.0 0.00 0.00 0.00 67 1006.8
20260504044030 51 0 0.0 0.0 0.00 0.00 0.00 66 1006.7
20260504043530 51 0 0.0 0.0 0.00 0.00 0.00 65 1006.7
20260504043043 52 0 0.0 0.0 0.00 0.00 0.00 66 1006.8
20260504042530 52 0 0.0 0.0 0.00 0.00 0.00 65 1006.8
20260504042030 52 0 0.0 0.0 0.00 0.00 0.00 65 1006.9
20260504041544 52 0 0.0 0.0 0.00 0.00 0.00 65 1007.1
20260504041029 52 0 0.0 0.0 0.00 0.00 0.00 66 1007.0
20260504040530 53 0 0.0 1.0 0.00 0.00 0.00 66 1007.0
20260504040042 53 0 0.0 2.0 0.00 0.00 0.00 66 1007.1
20260504035533 53 0 0.0 2.0 0.00 0.00 0.00 65 1007.2
20260504035030 53 0 0.0 2.0 0.00 0.00 0.00 59 1007.2
20260504034545 53 0 0.0 0.0 0.00 0.00 0.00 58 1007.3
20260504034030 53 0 0.0 0.0 0.00 0.00 0.00 58 1007.4
20260504033530 54 0 0.0 0.0 0.00 0.00 0.00 58 1007.4
20260504033043 54 0 0.0 0.0 0.00 0.00 0.00 57 1007.4
20260504032530 55 0 0.0 0.0 0.00 0.00 0.00 58 1007.5
20260504032030 55 0 0.0 5.0 0.00 0.00 0.00 58 1007.4
20260504031544 56 0 0.0 5.0 0.00 0.00 0.00 57 1007.5
20260504031029 55 180 1.0 4.0 0.00 0.00 0.00 56 1007.5
20260504030530 55 0 0.0 1.0 0.00 0.00 0.00 56 1007.7
20260504030041 55 0 0.0 1.0 0.00 0.00 0.00 56 1007.7
20260504025530 55 0 0.0 0.0 0.00 0.00 0.00 56 1007.7
20260504025030 56 0 0.0 0.0 0.00 0.00 0.00 56 1007.7
20260504024542 57 0 0.0 0.0 0.00 0.00 0.00 56 1007.7
20260504024032 58 0 0.0 6.0 0.00 0.00 0.00 56 1007.8
20260504023531 58 0 0.0 6.0 0.00 0.00 0.00 55 1007.7
20260504023039 59 83 0.0 5.0 0.00 0.00 0.00 57 1007.7
20260504022530 59 0 0.0 0.0 0.00 0.00 0.00 52 1007.7
20260504022031 59 0 0.0 0.0 0.00 0.00 0.00 48 1007.6
20260504021540 60 0 0.0 0.0 0.00 0.00 0.00 48 1007.5
20260504021030 60 0 0.0 0.0 0.00 0.00 0.00 48 1007.7
20260504020530 60 0 0.0 1.0 0.00 0.00 0.00 47 1007.6
20260504020041 60 0 0.0 1.0 0.00 0.00 0.00 47 1007.6
20260504015530 61 0 0.0 3.0 0.00 0.00 0.00 47 1007.7
20260504015030 61 0 0.0 3.0 0.00 0.00 0.00 48 1007.7
20260504014543 62 0 0.0 0.0 0.00 0.00 0.00 51 1007.8
20260504014031 62 0 0.0 0.0 0.00 0.00 0.00 48 1007.8
20260504013532 63 0 0.0 0.0 0.00 0.00 0.00 47 1007.8
20260504013055 63 0 0.0 0.0 0.00 0.00 0.00 45 1007.9
20260504012530 64 0 0.0 0.0 0.00 0.00 0.00 46 1008.0
20260504012032 65 0 0.0 0.0 0.00 0.00 0.00 47 1008.1
20260504011542 65 0 0.0 0.0 0.00 0.00 0.00 46 1008.1
20260504011032 65 0 0.0 0.0 0.00 0.00 0.00 47 1008.1
20260504010531 65 0 0.0 0.0 0.00 0.00 0.00 45 1008.2
20260504010042 65 0 0.0 2.0 0.00 0.00 0.00 45 1008.3
20260504005529 64 0 0.0 3.0 0.00 0.00 0.00 46 1008.4
20260504005029 64 260 1.0 3.0 0.00 0.00 0.00 49 1008.6
20260504004538 64 260 1.0 4.0 0.00 0.00 0.00 50 1008.6
20260504004030 64 270 2.0 8.0 0.00 0.00 0.00 52 1008.8
20260504003532 65 273 3.0 8.0 0.00 0.00 0.00 49 1008.8
20260504003035 66 245 3.0 8.0 0.00 0.00 0.00 45 1008.8
20260504002530 67 254 4.0 8.0 0.00 0.00 0.00 43 1008.9
20260504002030 68 244 4.0 8.0 0.00 0.00 0.00 44 1008.9
20260504001547 68 246 4.0 8.0 0.00 0.00 0.00 41 1008.9
20260504001030 69 232 3.0 10.0 0.00 0.00 0.00 45 1009.0
20260504000530 69 257 5.0 10.0 0.00 0.00 0.00 42 1009.1
20260504000041 69 263 5.0 10.0 0.00 0.00 0.00 41 1009.1
20260503235529 70 306 3.0 9.0 0.00 0.00 0.00 46 1009.2
20260503235031 69 250 5.0 11.0 0.00 0.00 0.00 41 1009.2
20260503234540 70 255 7.0 11.0 0.00 0.00 0.00 41 1009.3
20260503234032 69 287 3.0 11.0 0.00 0.00 0.00 43 1009.3
20260503233529 70 261 6.0 11.0 0.00 0.00 0.00 44 1009.5
20260503233037 70 248 6.0 11.0 0.00 0.00 0.00 42 1009.5
20260503232530 70 230 6.0 11.0 0.00 0.00 0.00 41 1009.5
20260503232032 70 252 6.0 10.0 0.00 0.00 0.00 40 1009.5
20260503231536 71 305 3.0 8.0 0.00 0.00 0.00 40 1009.5
20260503231034 71 251 3.0 7.0 0.00 0.00 0.00 45 1009.6
20260503230530 71 178 2.0 12.0 0.00 0.00 0.00 37 1009.5
20260503230040 70 248 4.0 12.0 0.00 0.00 0.00 44 1009.5
20260503225530 70 268 5.0 12.0 0.00 0.00 0.00 40 1009.6
20260503225033 70 259 2.0 11.0 0.00 0.00 0.00 46 1009.6
20260503224542 70 254 3.0 11.0 0.00 0.00 0.00 47 1009.6
20260503224032 70 259 5.0 12.0 0.00 0.00 0.00 47 1009.6
20260503223532 71 277 7.0 12.0 0.00 0.00 0.00 39 1009.7
20260503223041 71 300 5.0 12.0 0.00 0.00 0.00 42 1009.7
20260503222532 70 355 4.0 11.0 0.00 0.00 0.00 43 1009.8
20260503222031 70 294 5.0 13.0 0.00 0.00 0.00 43 1009.9
20260503221542 70 232 8.0 14.0 0.00 0.00 0.00 42 1009.9
20260503221031 70 292 8.0 14.0 0.00 0.00 0.00 41 1009.9
20260503220531 71 294 6.0 11.0 0.00 0.00 0.00 41 1009.9
20260503220039 70 298 5.0 15.0 0.00 0.00 0.00 42 1010.0
20260503215531 70 287 6.0 15.0 0.00 0.00 0.00 41 1010.1
20260503215031 70 285 4.0 13.0 0.00 0.00 0.00 41 1010.1
20260503214540 70 205 6.0 13.0 0.00 0.00 0.00 37 1010.1
20260503214031 71 259 6.0 14.0 0.00 0.00 0.00 41 1010.2
20260503213531 71 277 7.0 14.0 0.00 0.00 0.00 36 1010.3
20260503213044 71 308 7.0 10.0 0.00 0.00 0.00 38 1010.3
20260503212531 71 205 3.0 7.0 0.00 0.00 0.00 39 1010.3
20260503212030 71 197 3.0 9.0 0.00 0.00 0.00 38 1010.4
20260503211541 71 271 3.0 10.0 0.00 0.00 0.00 36 1010.4
20260503211030 71 350 6.0 10.0 0.00 0.00 0.00 38 1010.7
20260503210531 71 296 4.0 10.0 0.00 0.00 0.00 41 1010.7
20260503210039 71 344 4.0 10.0 0.00 0.00 0.00 38 1010.9
20260503205531 71 338 4.0 10.0 0.00 0.00 0.00 41 1010.9
20260503205032 71 327 4.0 10.0 0.00 0.00 0.00 43 1010.9
20260503204541 70 234 5.0 13.0 0.00 0.00 0.00 46 1011.0
20260503204034 70 228 4.0 13.0 0.00 0.00 0.00 38 1011.0
20260503203533 70 288 9.0 13.0 0.00 0.00 0.00 43 1011.2
20260503203041 70 294 4.0 15.0 0.00 0.00 0.00 39 1011.1
20260503202531 70 238 7.0 15.0 0.00 0.00 0.00 43 1011.3
20260503202031 70 333 6.0 14.0 0.00 0.00 0.00 43 1011.2
20260503201538 70 327 9.0 14.0 0.00 0.00 0.00 41 1011.3
20260503201030 70 319 7.0 15.0 0.00 0.00 0.00 38 1011.3
20260503200530 70 360 9.0 15.0 0.00 0.00 0.00 36 1011.4
20260503200042 70 36 4.0 15.0 0.00 0.00 0.00 36 1011.4
20260503195531 70 282 6.0 13.0 0.00 0.00 0.00 42 1011.5
20260503195030 70 258 1.0 10.0 0.00 0.00 0.00 38 1011.6
20260503194548 70 355 2.0 10.0 0.00 0.00 0.00 37 1011.6
20260503194031 70 306 2.0 9.0 0.00 0.00 0.00 40 1011.6
20260503193531 69 153 4.0 12.0 0.00 0.00 0.00 37 1011.7
20260503193049 69 284 8.0 14.0 0.00 0.00 0.00 42 1011.7
20260503192529 70 279 8.0 15.0 0.00 0.00 0.00 40 1011.8
20260503192034 70 302 1.0 15.0 0.00 0.00 0.00 38 1011.7
20260503191607 70 315 7.0 15.0 0.00 0.00 0.00 42 1011.9
20260503191033 70 30 4.0 12.0 0.00 0.00 0.00 38 1011.9
20260503190532 69 0 2.0 12.0 0.00 0.00 0.00 37 1012.0
20260503190039 69 277 7.0 12.0 0.00 0.00 0.00 41 1012.1
20260503185530 69 271 8.0 12.0 0.00 0.00 0.00 45 1012.1
20260503185029 69 298 3.0 12.0 0.00 0.00 0.00 40 1012.1
20260503184544 69 54 2.0 10.0 0.00 0.00 0.00 37 1012.3
20260503184029 69 355 3.0 12.0 0.00 0.00 0.00 42 1012.3
20260503183532 68 281 5.0 14.0 0.00 0.00 0.00 41 1012.4
20260503183046 68 337 6.0 14.0 0.00 0.00 0.00 39 1012.5
20260503182528 68 360 8.0 14.0 0.00 0.00 0.00 41 1012.6
20260503182029 68 19 4.0 11.0 0.00 0.00 0.00 39 1012.5
20260503181548 68 316 6.0 11.0 0.00 0.00 0.00 44 1012.7
20260503181030 68 304 3.0 13.0 0.00 0.00 0.00 40 1012.8
20260503180530 68 33 4.0 13.0 0.00 0.00 0.00 44 1012.9
20260503180042 68 340 8.0 13.0 0.00 0.00 0.00 44 1013.0
20260503175535 68 251 5.0 10.0 0.00 0.00 0.00 45 1012.9
20260503175032 68 302 3.0 11.0 0.00 0.00 0.00 41 1013.0
20260503174546 68 315 7.0 11.0 0.00 0.00 0.00 42 1013.0
20260503174028 68 269 3.0 10.0 0.00 0.00 0.00 41 1013.3
20260503173529 68 229 6.0 10.0 0.00 0.00 0.00 43 1013.2
20260503173038 68 302 1.0 9.0 0.00 0.00 0.00 44 1013.3
20260503172529 67 52 1.0 12.0 0.00 0.00 0.00 42 1013.3
20260503172029 67 342 5.0 12.0 0.00 0.00 0.00 43 1013.5
20260503171536 67 323 3.0 9.0 0.00 0.00 0.00 43 1013.5
20260503171030 66 294 3.0 9.0 0.00 0.00 0.00 46 1013.6
20260503170530 66 22 2.0 11.0 0.00 0.00 0.00 43 1013.5
20260503150529 62 5 4.0 12.0 0.00 0.00 0.00 52 1013.6